Location: Napier
(39.4830°S, 176.9170°E)
Time: 14:16:17
(UTC+13:00)

ARGOS - Pass Details

Date: 24 January 2019
Orbit: 821 x 834 km, 98.5° (Epoch: 16 February)

Event Time Altitude Azimuth Distance (km) Brightness Sun altitude
Rises 21:31:48 0° 153° (SSE) 3,390 6.5 -10.1°
Reaches altitude 10° 21:34:38 10° 139° (SE) 2,448 5.6 -10.5°
Maximum altitude 21:38:57 24° 86° (E) 1,657 4.3 -11.2°
Enters shadow 21:42:01 15° 43° (NE) 2,083 4.6 -11.7°
